FENGYUN 1C DEB, 37687

Orbit data source: Space-Track

FENGYUN 1C DEB, 37687 is space debris in SSO originally from a launch on Mon, 10 May 1999 UTC launched from the Taiyaun Space Center, China (TSC). Fengyun 1C debris stems from the Chinese weather satellite Fengyun-1C, which was intentionally destroyed by a Chinese anti-satellite missile in 2007. This event dramatically increased the amount of space debris, with thousands of trackable fragments posing hazards to satellites and human spaceflight. The Fengyun 1C debris cloud has become a focal point in discussions about space sustainability and the need for international regulations to prevent the creation of new debris.

Loading next visibility...
Identifier
37687, 1999-025ELC
Orbit
SSO
Country
Flag of CNCN / PRC
Related business
Manufacturer
Unknown
Mission
Spacecraft
Bus & Motor
Unknown
Mass
Unknown
Launch date (UTC)
1999-05-10 (27 years ago)
Launch vehicle
Unknown
Launch site
Taiyaun Space Center, China (TSC)
Object type
Payload
Rocket body
Debris
Shape & HBR
Unknown shape, 0.1 m
Radar Cross Section
Small (<0.1 m²)

Expand to show TLE details & history
Last TLE update: 1 week ago

TLE from 1 week ago
0 FENGYUN 1C DEB
1 37687U 99025ELC 26160.82332419  .00003572  00000-0  20056-2 0  9995
2 37687  98.1859 179.1414 0328646 223.4312 318.5764 13.87157387857358
Epoch: 2026-06-09T19:45Z
TLE epoch observation values (Epoch: 2026-06-09T19:45:35.210Z)
Latitude
0.44272°
Longitude
164.61774°
Altitude
764.694 km
Speed
7.562 km/s
True Right ascension
23h 56m 49s
True Declination
0° 26' 24"
Sunlit
Object was in daylight at epoch
Visualization orbit readout
Latitude
Unknown
Longitude
Unknown
Altitude
Unknown
Speed
Unknown
Apparent Right ascension
Unknown
Apparent Declination
Unknown
Sunlit
N/A
Visualization observer readout
Local Sidereal Time
19:09:29
Azimuth
Unknown
Elevation
Unknown
Doppler factor
Unknown
Orbital elements
Apogee altitude
1,176.153 km
Perigee altitude
695.415 km
Semi-major axis
7,313.921 km
Eccentricity
0.03286
Inclination
98.1859°
RAAN
179.1414°
Arg. of periapsis
223.4312°
True anomaly
316.00651°
Mean anomaly
318.5764°
Eccentric anomaly
317.29941°
Mean motion
3.46991 °/min
Orbital period
103.75 mins
BSTAR
0.0020056
Loading maneuver chart data...
Computing Atmospheric mass density...
Loading historical data...
Loading historical data...
Loading historical data...
Loading historical data...
Loading historical data...
Loading historical data...
Loading historical data...

Documentation

Showing up to 5 results
|